• In Österreich
  • Länderverzeichnis
  • Für 7 Tage
  • Wassertemperatur
  • Satellitenkarten
  • Wetterkarte
  • News
  • Widgets
  • user-avatar
    Anmelden

    Stündliche Wetter Nachiczewan

    Heute, 16 Oktober, Dienstag

    Zeit Temperatur Niederschläge Wind Luftdruck Luftfeuchtigkeit
    00:00 +19°C° 0 mm 1 m/S 691 mmHg 54%
    01:00 +19°C° 0 mm 1 m/S 692 mmHg 56%
    02:00 +18°C° 0 mm 1 m/S 692 mmHg 58%
    03:00 +18°C° 0 mm 1 m/S 691 mmHg 61%
    04:00 +18°C° 0 mm 1 m/S 692 mmHg 62%
    05:00 +16°C° 0 mm 1 m/S 692 mmHg 63%
    06:00 +16°C° 0 mm 1 m/S 692 mmHg 63%
    07:00 +18°C° 0 mm 1 m/S 692 mmHg 58%
    08:00 +20°C° 0 mm 1 m/S 693 mmHg 53%
    09:00 +21°C° 0 mm 1 m/S 693 mmHg 46%
    10:00 +21°C° 0 mm 2 m/S 693 mmHg 43%
    11:00 +23°C° 0 mm 2 m/S 693 mmHg 39%
    12:00 +24°C° 0 mm 2 m/S 693 mmHg 36%
    13:00 +24°C° 0 mm 2 m/S 693 mmHg 35%
    14:00 +24°C° 0 mm 3 m/S 693 mmHg 34%
    15:00 +25°C° 0 mm 3 m/S 692 mmHg 33%
    16:00 +24°C° 0 mm 2 m/S 692 mmHg 36%
    17:00 +23°C° 0 mm 2 m/S 692 mmHg 39%
    18:00 +20°C° 0 mm 2 m/S 692 mmHg 42%
    19:00 +20°C° 0 mm 2 m/S 692 mmHg 45%
    20:00 +19°C° 0 mm 2 m/S 693 mmHg 48%
    21:00 +18°C° 0 mm 2 m/S 693 mmHg 51%
    22:00 +18°C° 0 mm 2 m/S 693 mmHg 54%
    23:00 +18°C° 0 mm 1 m/S 693 mmHg 56%

    Morgen, 17 Oktober, Mittwoch

    Zeit Temperatur Niederschläge Wind Luftdruck Luftfeuchtigkeit
    00:00 +18°C° 0 mm 1 m/S 693 mmHg 58%
    01:00 +16°C° 0 mm 1 m/S 693 mmHg 60%
    02:00 +16°C° 0 mm 1 m/S 693 mmHg 61%
    03:00 +15°C° 0 mm 1 m/S 692 mmHg 63%
    04:00 +15°C° 0 mm 1 m/S 692 mmHg 64%
    05:00 +15°C° 0 mm 1 m/S 692 mmHg 65%
    06:00 +14°C° 0 mm 1 m/S 692 mmHg 66%
    07:00 +16°C° 0 mm 1 m/S 692 mmHg 61%
    08:00 +18°C° 0 mm 1 m/S 693 mmHg 55%
    09:00 +19°C° 0 mm 1 m/S 693 mmHg 49%
    10:00 +20°C° 0 mm 1 m/S 693 mmHg 45%
    11:00 +20°C° 0 mm 2 m/S 693 mmHg 41%
    12:00 +23°C° 0 mm 2 m/S 692 mmHg 37%
    13:00 +23°C° 0 mm 2 m/S 692 mmHg 36%
    14:00 +23°C° 0 mm 2 m/S 692 mmHg 34%
    15:00 +24°C° 0 mm 2 m/S 691 mmHg 33%
    16:00 +23°C° 0 mm 2 m/S 691 mmHg 36%
    17:00 +21°C° 0 mm 2 m/S 691 mmHg 39%
    18:00 +21°C° 0 mm 1 m/S 691 mmHg 43%
    19:00 +20°C° 0 mm 1 m/S 691 mmHg 46%
    20:00 +20°C° 0 mm 1 m/S 691 mmHg 49%
    21:00 +19°C° 0 mm 1 m/S 691 mmHg 51%
    22:00 +18°C° 0 mm 1 m/S 691 mmHg 53%
    23:00 +18°C° 0 mm 1 m/S 691 mmHg 56%

    übermorgen, 18 Oktober, Donnerstag

    Zeit Temperatur Niederschläge Wind Luftdruck Luftfeuchtigkeit
    00:00 +16°C° 0 mm 1 m/S 691 mmHg 58%
    01:00 +16°C° 0 mm 1 m/S 691 mmHg 59%
    02:00 +15°C° 0 mm 1 m/S 690 mmHg 61%
    03:00 +15°C° 0 mm 1 m/S 690 mmHg 62%
    04:00 +14°C° 0 mm 0 m/S 690 mmHg 63%
    05:00 +13°C° 0 mm 0 m/S 690 mmHg 64%
    06:00 +13°C° 0 mm 0 m/S 690 mmHg 65%
    07:00 +15°C° 0 mm 0 m/S 690 mmHg 58%
    08:00 +16°C° 0 mm 0 m/S 691 mmHg 51%
    09:00 +18°C° 0 mm 0 m/S 691 mmHg 44%
    10:00 +21°C° 0 mm 1 m/S 691 mmHg 40%
    11:00 +22°C° 0 mm 1 m/S 691 mmHg 37%
    12:00 +23°C° 0 mm 1 m/S 691 mmHg 33%
    13:00 +24°C° 0 mm 1 m/S 690 mmHg 32%
    14:00 +24°C° 0 mm 2 m/S 690 mmHg 31%
    15:00 +25°C° 0 mm 2 m/S 690 mmHg 30%
    16:00 +23°C° 0 mm 1 m/S 690 mmHg 33%
    17:00 +22°C° 0 mm 1 m/S 690 mmHg 36%
    18:00 +21°C° 0 mm 1 m/S 690 mmHg 39%
    19:00 +20°C° 0 mm 1 m/S 690 mmHg 40%
    20:00 +20°C° 0 mm 1 m/S 690 mmHg 42%
    21:00 +19°C° 0 mm 1 m/S 690 mmHg 44%
    22:00 +19°C° 0 mm 1 m/S 690 mmHg 45%
    23:00 +18°C° 0 mm 1 m/S 690 mmHg 47%

    19 Oktober, Freitag

    Zeit Temperatur Niederschläge Wind Luftdruck Luftfeuchtigkeit
    00:00 +18°C° 0 mm 1 m/S 690 mmHg 48%
    01:00 +16°C° 0 mm 1 m/S 690 mmHg 49%
    02:00 +16°C° 0 mm 1 m/S 690 mmHg 49%
    03:00 +15°C° 0 mm 1 m/S 690 mmHg 50%
    04:00 +15°C° 0 mm 1 m/S 690 mmHg 51%
    05:00 +15°C° 0 mm 1 m/S 690 mmHg 52%
    06:00 +14°C° 0 mm 1 m/S 690 mmHg 52%
    07:00 +16°C° 0 mm 1 m/S 690 mmHg 46%
    08:00 +19°C° 0 mm 1 m/S 691 mmHg 39%
    09:00 +21°C° 0 mm 1 m/S 691 mmHg 32%
    10:00 +22°C° 0 mm 1 m/S 691 mmHg 30%
    11:00 +24°C° 0 mm 1 m/S 691 mmHg 27%
    12:00 +25°C° 0 mm 1 m/S 691 mmHg 25%
    13:00 +25°C° 0 mm 1 m/S 690 mmHg 25%
    14:00 +25°C° 0 mm 2 m/S 690 mmHg 24%
    15:00 +26°C° 0 mm 2 m/S 690 mmHg 23%
    16:00 +24°C° 0 mm 1 m/S 690 mmHg 26%
    17:00 +23°C° 0 mm 1 m/S 690 mmHg 30%
    18:00 +22°C° 0 mm 1 m/S 690 mmHg 33%
    19:00 +21°C° 0 mm 1 m/S 690 mmHg 34%
    20:00 +21°C° 0 mm 1 m/S 690 mmHg 36%
    21:00 +20°C° 0 mm 1 m/S 690 mmHg 38%
    22:00 +20°C° 0 mm 1 m/S 690 mmHg 39%
    23:00 +19°C° 0 mm 1 m/S 690 mmHg 40%

    20 Oktober, Samstag

    Zeit Temperatur Niederschläge Wind Luftdruck Luftfeuchtigkeit
    00:00 +19°C° 0 mm 1 m/S 690 mmHg 41%
    01:00 +18°C° 0 mm 1 m/S 689 mmHg 41%
    02:00 +18°C° 0 mm 1 m/S 689 mmHg 42%
    03:00 +18°C° 0 mm 1 m/S 689 mmHg 43%
    04:00 +16°C° 0 mm 1 m/S 689 mmHg 44%
    05:00 +16°C° 0 mm 1 m/S 689 mmHg 45%
    06:00 +15°C° 0 mm 0 m/S 689 mmHg 46%
    07:00 +18°C° 0 mm 1 m/S 689 mmHg 41%
    08:00 +20°C° 0 mm 1 m/S 690 mmHg 36%
    09:00 +22°C° 0 mm 1 m/S 690 mmHg 31%
    10:00 +23°C° 0 mm 1 m/S 690 mmHg 29%
    11:00 +24°C° 0 mm 1 m/S 689 mmHg 28%
    12:00 +25°C° 0 mm 2 m/S 689 mmHg 26%
    13:00 +26°C° 0 mm 2 m/S 689 mmHg 26%
    14:00 +26°C° 0 mm 2 m/S 689 mmHg 25%
    15:00 +26°C° 0 mm 2 m/S 688 mmHg 25%
    16:00 +25°C° 0.1 mm 2 m/S 688 mmHg 27%
    17:00 +24°C° 0.1 mm 1 m/S 688 mmHg 30%
    18:00 +23°C° 0.1 mm 1 m/S 688 mmHg 32%
    19:00 +22°C° 0.1 mm 1 m/S 688 mmHg 33%
    20:00 +22°C° 0.1 mm 1 m/S 688 mmHg 34%
    21:00 +21°C° 0.1 mm 1 m/S 688 mmHg 35%
    22:00 +21°C° 0.1 mm 1 m/S 688 mmHg 36%
    23:00 +21°C° 0.1 mm 1 m/S 688 mmHg 37%

    21 Oktober, Sonntag

    Zeit Temperatur Niederschläge Wind Luftdruck Luftfeuchtigkeit
    00:00 +20°C° 0.1 mm 1 m/S 688 mmHg 38%
    01:00 +20°C° 0 mm 1 m/S 688 mmHg 40%
    02:00 +20°C° 0 mm 1 m/S 687 mmHg 41%
    03:00 +19°C° 0 mm 1 m/S 687 mmHg 43%
    04:00 +19°C° 0 mm 1 m/S 687 mmHg 44%
    05:00 +19°C° 0 mm 1 m/S 687 mmHg 46%
    06:00 +19°C° 0 mm 1 m/S 688 mmHg 48%
    07:00 +20°C° 0 mm 1 m/S 688 mmHg 45%
    08:00 +21°C° 0 mm 1 m/S 688 mmHg 42%
    09:00 +22°C° 0 mm 1 m/S 688 mmHg 40%
    10:00 +23°C° 0 mm 1 m/S 688 mmHg 38%
    11:00 +24°C° 0 mm 2 m/S 688 mmHg 37%
    12:00 +24°C° 0 mm 2 m/S 688 mmHg 36%
    13:00 +25°C° 0.1 mm 2 m/S 687 mmHg 36%
    14:00 +25°C° 0.1 mm 2 m/S 687 mmHg 35%
    15:00 +25°C° 0.1 mm 2 m/S 687 mmHg 34%
    16:00 +24°C° 0.5 mm 2 m/S 687 mmHg 38%
    17:00 +23°C° 0.5 mm 1 m/S 687 mmHg 42%
    18:00 +22°C° 0.5 mm 1 m/S 687 mmHg 46%
    19:00 +21°C° 0.4 mm 1 m/S 687 mmHg 47%
    20:00 +21°C° 0.4 mm 1 m/S 687 mmHg 49%
    21:00 +20°C° 0.4 mm 1 m/S 687 mmHg 51%
    22:00 +20°C° 0.2 mm 1 m/S 687 mmHg 52%
    23:00 +19°C° 0.2 mm 1 m/S 687 mmHg 53%
    Mehr zeigen